Terug naar catalogus

USA 575

ActiefMilitairVLEO
NORAD 67487·PAYLOAD·🇺🇸 United States

Gelanceerd Jan 17, 2026 vanaf Vandenberg Space Force Base

Loading…

Volgende Passages (komende 24 uur)

TLE

VerouderdSource: Mike McCants

Epoch: Aug 2, 2026, 20:45 UTC

1 67487U 26011D   26214.86526069 0.00000000  00000-0  00000-0 0    02
2 67487  70.0170 119.8214 0002000 341.0200  18.9799 14.96713362    02

Volg USA 575 in realtime met AllMySat

Download on the App Store